Location: Rybnik
(50.1167°N, 18.5333°E)
Time: 21:27:30
(UTC+01:00)

ISS - Visible Passes

Search period start: 30 November 2022 00:00
Search period end: 10 December 2022 00:00
Orbit: 415 x 420 km, 51.6° (Epoch: 30 November)

Date Brightness Start Highest point End Pass type
(mag) Time Alt. Az. Time Alt. Az. Time Alt. Az.
30 Nov -3.8 17:03:49 10° WNW 17:07:10 68° N 17:09:13 21° E visible
30 Nov -1.3 18:40:39 10° WNW 18:42:09 23° W 18:42:09 23° W visible
01 Dec -3.7 17:52:37 10° WNW 17:55:58 70° SSW 17:56:13 65° SSE visible
02 Dec -3.8 17:04:36 10° WNW 17:07:58 89° S 17:10:23 18° ESE visible
02 Dec -1.2 18:41:38 10° W 18:43:19 21° WSW 18:43:19 21° WSW visible
03 Dec -3.8 16:16:35 10° WNW 16:19:56 77° N 16:23:18 10° E visible
03 Dec -2.4 17:53:28 10° W 17:56:35 36° SSW 17:57:38 28° S visible
04 Dec -3.0 17:05:23 10° WNW 17:08:40 52° SSW 17:11:56 10° SE visible
04 Dec -0.7 18:43:28 10° WSW 18:44:50 12° SW 18:45:06 12° SW visible
05 Dec -3.5 16:17:21 10° WNW 16:20:42 71° SSW 16:24:02 10° ESE visible
05 Dec -1.1 17:54:41 10° W 17:57:03 18° SW 17:59:24 10° S visible
06 Dec -1.5 17:06:22 10° W 17:09:13 26° SW 17:12:04 10° SSE visible
07 Dec -2.1 16:18:12 10° W 16:21:20 37° SSW 16:24:27 10° SE visible
08 Dec -0.5 17:08:07 10° WSW 17:09:36 12° SW 17:11:05 10° SSW visible
09 Dec -0.7 16:19:23 10° W 16:21:48 19° SW 16:24:13 10° S visible
